Location: Sabalos
(43.2860°N, 0.1414°E)
Time: 19:45:29
(UTC+00:00)

Cosmos 2219 Rocket - Pass Details

Date: 05 July 2020
Orbit: 827 x 848 km, 71.0° (Epoch: 14 August)

Event Time Altitude Azimuth Distance (km) Brightness Sun altitude
Exits shadow 22:11:51 - 219° (SW) 3,147 4.9 -19.2°
Reaches altitude 10° 22:13:47 10° 223° (SW) 2,425 4.4 -19.3°
Maximum altitude 22:19:12 52° 300° (WNW) 1,023 2.9 -19.8°
Drops below altitude 10° 22:24:41 10° 16° (NNE) 2,449 5.3 -20.2°
Sets 22:27:12 0° 22° (NNE) 3,390 6.0 -20.4°
